Tracking 29892 objects as of 21-Nov-2024
HD Live streaming from Space Station
objects crossing your sky now

GEOSAT

Track GEOSAT now!
10-day predictions
GEOSAT is classified as:


NORAD ID: 15595
Int'l Code: 1985-021A
Perigee: 766.1 km
Apogee: 769.3 km
Inclination: 108.1 °
Period: 100.0 minutes
Semi major axis: 7138 km
RCS: 9.5926 m2 (large)
Launch date: March 13, 1985
Source: United States (US)
Launch site: AIR FORCE WESTERN TEST RANGE (AFWTR)
Your satellite tracking list
Your tracking list is empty




NASA's NSSDC Master Catalog

Two Line Element Set (TLE):
1 15595U 85021A   24325.02690412  .00000582  00000-0  23043-3 0  9991
2 15595 108.0617 326.5659 0002280 287.8170  72.2723 14.39376721 80139
Source of the keplerian elements: AFSPC